"Pseudo-MPEC" for MZ26371

Created 2026 Aug 14 1:35:05 UT using Find_Orb

Click here for an explanation of pseudo-MPECs

 
 Astrometry: 
     MZ26371 0C2026 07 23.46502421 01 34.351+03 59 27.88   ~8E15 21.19GVNEOCPF51
     MZ26371 0C2026 07 23.47733621 01 33.336+03 59 50.96   ~8E15 21.31GVNEOCPF51
     MZ26371 0C2026 08 04.56512320 35 04.382+13 15 50.69   ~8E15 19.94GVNEOCPF52
     MZ26371 0C2026 08 04.57023820 35 03.198+13 16 11.42   ~8E15 19.65GVNEOCPF52
     MZ26371 0C2026 08 04.57538920 35 01.999+13 16 32.43   ~8E15 19.85GVNEOCPF52
     MZ26371 0C2026 08 04.58078420 35 00.756+13 16 54.35   ~8E15 19.90GVNEOCPF52
     MZ26371*KB2026 08 11.76965 19 53 09.62 +24 46 37.4    ~8C2K 18.6 GXNEOCPN86
     MZ26371 KB2026 08 11.77326 19 53 07.65 +24 47 05.6    ~8C2K 18.9 GXNEOCPN86
     MZ26371 KB2026 08 11.77689 19 53 05.57 +24 47 34.2    ~8C2K 18.7 GXNEOCPN86
     MZ26371 KB2026 08 11.78054 19 53 03.62 +24 48 03.2    ~8C2K 19.1 GXNEOCPN86
     MZ26371 KB2026 08 12.65526 19 44 38.96 +26 48 07.7    ~8CL5 18.9 GXNEOCPN94
     MZ26371 KB2026 08 12.66762 19 44 31.02 +26 49 54.2    ~8CL5 18.8 GXNEOCPN94
     MZ26371 KB2026 08 12.67917 19 44 23.61 +26 51 33.3    ~8CL5 19.0 GXNEOCPN94
     MZ26371 KC2026 08 12.81538319 42 58.798+27 11 09.20   ~8CLK 18.7 GXNEOCPL18
     MZ26371 KC2026 08 12.82081119 42 55.301+27 11 56.47   ~8CLK 18.6 GXNEOCPL18
     MZ26371 KC2026 08 12.82615919 42 51.751+27 12 43.42   ~8CLK 18.9 GXNEOCPL18
     MZ26371 KC2026 08 12.83142419 42 48.286+27 13 29.60   ~8CLK 18.5 GXNEOCPL18
     MZ26371 KB2026 08 12.89069819 42 10.080+27 22 12.48   ~8CLo       XNEOCP126
     MZ26371 KB2026 08 12.89587619 42 06.653+27 22 58.30   ~8CLo       XNEOCP126
     MZ26371 KB2026 08 12.91366419 41 55.44 +27 25 33.7    ~8CMZ 17.9 GXNEOCPI93
     MZ26371 KB2026 08 12.92033819 41 51.02 +27 26 32.1    ~8CMZ 18.4 GXNEOCPI93
     MZ26371 KB2026 08 12.93250919 41 42.01 +27 28 18.1    ~8CN5 18.2 GVNEOCPL01
     MZ26371 KB2026 08 12.93612819 41 39.61 +27 28 49.3    ~8CN5       VNEOCPL01
     MZ26371 KB2026 08 12.93788619 41 38.46 +27 29 05.3    ~8CN5 18.2 GVNEOCPL01
     MZ26371 KB2026 08 12.93962919 41 37.29 +27 29 20.3    ~8CN5 18.2 GVNEOCPL01
     MZ26371 KB2026 08 12.94743 19 41 31.39 +27 30 25.2    ~8CNKx19.1 GXNEOCPL04
     MZ26371 KB2026 08 12.95478 19 41 26.53 +27 31 28.7    ~8CNKx19.2 GXNEOCPL04
     MZ26371 KB2026 08 12.96501019 41 21.126+27 32 56.79   ~8DBZ 18.8 GWNEOCPZ80
     MZ26371 KB2026 08 12.97143119 41 16.877+27 33 53.33   ~8DBZ 18.9 GWNEOCPZ80
     MZ26371 KB2026 08 13.76515 19 32 08.34 +29 34 55.2    ~8DJZ 19.4 GXNEOCPM75
     MZ26371 KB2026 08 13.77255 19 32 02.69 +29 36 05.4    ~8DJZ 18.6 GXNEOCPM75
     MZ26371 KB2026 08 13.77996 19 31 57.08 +29 37 15.5    ~8DJZ       XNEOCPM75
     MZ26371 0B2026 08 13.83340019 31 17.607+29 45 35.52   ~8DLK 20.94GWNEOCPG34
     MZ26371 KB2026 08 13.84026819 31 12.657+29 46 48.26   ~8DL5 19.33GXNEOCPK78
     MZ26371 KC2026 08 13.85046919 31 04.515+29 48 18.69   ~8DM5 19.6 VZNEOCPG19
     MZ26371 KB2026 08 13.85092419 31 04.423+29 48 30.17   ~8DL5 19.24GXNEOCPK78
     MZ26371 KB2026 08 13.85379619 31 01.990+29 48 59.22   ~8DLZ 19.5 GWNEOCPL47
     MZ26371 KB2026 08 13.85532419 31 00.912+29 49 13.26   ~8DLZ       WNEOCPL47
     MZ26371 0B2026 08 13.85623419 30 59.990+29 49 13.45   ~8DLK 19.86GWNEOCPG34
     MZ26371 KB2026 08 13.85856819 30 58.496+29 49 43.33   ~8DL5 19.83GXNEOCPK78
     MZ26371 KB2026 08 13.85926419 30 57.876+29 49 43.72   ~8DL5 18.5 VZNEOCPK74
     MZ26371 KB2026 08 13.86281519 30 55.138+29 50 17.52   ~8DL5 20.2 VZNEOCPK74
     MZ26371 KB2026 08 13.86624819 30 52.488+29 50 50.60   ~8DL5 19.6 VZNEOCPK74
     MZ26371 KB2026 08 13.86841619 30 51.607+29 51 11.20   ~8DLZ 18.2 GXNEOCPZ43
     MZ26371 KB2026 08 13.87683919 30 45.038+29 52 32.20   ~8DLZ 16.1 GXNEOCPZ43
     MZ26371 KB2026 08 13.87770919 30 43.67 +29 52 36.3    ~8DM5 18.2 GXNEOCPL65
     MZ26371 KB2026 08 13.88451619 30 39.127+29 53 45.49   ~8DLZ 18.2 GXNEOCPZ43
     MZ26371 KC2026 08 13.88675919 30 36.446+29 54 05.17   ~8DM5 18.5 VZNEOCPG19
     MZ26371 KB2026 08 13.88729419 30 36.22 +29 54 07.6    ~8DM5 18.0 GXNEOCPL65
     MZ26371 0B2026 08 13.89591419 30 30.326+29 55 36.52   ~8DMo 18.1 GXNEOCPR54
     MZ26371 KB2026 08 13.89687919 30 28.80 +29 55 39.4    ~8DM5 19.9 GXNEOCPL65
     MZ26371 0B2026 08 13.90175919 30 25.781+29 56 32.60   ~8DMo 18.5 GXNEOCPR54
     MZ26371 0B2026 08 13.90761619 30 21.211+29 57 28.55   ~8DMo 19.1 GXNEOCPR54
     MZ26371 0C2026 08 13.94275219 29 53.614+30 03 00.07   ~8DN5 18.9 GWNEOCPJ95
     MZ26371 0C2026 08 13.95023319 29 47.796+30 04 11.60   ~8DN5 19.5 GWNEOCPJ95

Station data:
(126) Monte Viseggi  (N44.132565 E9.790150)  Italy.
   Observers L. Sannino, A. Mancuso, S. Mercanti, D. Agnetti. Measurers L.
   Sannino, A. Mancuso. 0.41-m f/5.3 reflector + CCD.
(F51) Pan-STARRS 1, Haleakala  (N20.707234 W156.255910)  US/Hawaii.
   Observers J. Herman, T. Lowe, P. Minguez, A. Schultz, I. Smith. Measurers
   K. Chambers, T. de Boer, J. Fairlamb, H. Gao, M. Huber, C.-C. Lin, E.
   Magnier, Y. Ramanjooloo, R. Wainscoat, R. Weryk. 1.8-m Ritchey-Chrétien +
   CCD.
(F52) Pan-STARRS 2, Haleakala  (N20.707382 W156.255910)  US/Hawaii.
   Observers J. Herman, T. Lowe, P. Minguez, A. Schultz, I. Smith. Measurers
   K. Chambers, T. de Boer, J. Fairlamb, H. Gao, M. Huber, C.-C. Lin, E.
   Magnier, Y. Ramanjooloo, R. Wainscoat, R. Weryk. 1.8-m Ritchey-Chrétien +
   CCD.
(G19) Immanuel Kant Observatory,Limbach  (N50.860588 E12.746000)  Germany.
   Observer I. Kuettner. 0.23-m f/5.5 reflector + CCD.
(G34) Oberfrauendorf  (N50.860002 E13.701500)  Germany.  Observer T. Felber.
   0.35-m f/6.3 Schmidt-Cassegrain + CCD.
(I93) St Pardon de Conques  (N44.558670 W0.202960)  France.  Observers F.
   Losse, W. D'Anna. Measurer F. Losse. 0.40-m f/3.7 reflector + CCD.
(J95) Great Shefford  (N51.474969 W1.447003)  UK/England.  Observer P.
   Birtwhistle. 0.41-m f/6.3 Schmidt-Cassegrain + CCD.
(K74) Muensterschwarzach Observatory, Schwarzach  (N49.805276 E10.236400)
   Germany.  Observer C. Gerhard. 0.30-m f/3.75 Newtonian reflector + CCD.
(K78) iota Scorpii Observatory, La Spezia  (N44.126274 E9.853560)  Italy.
   Observers G. Scarfi, L. Sannino, L. Bertagna, F. Francini. Measurers G.
   Scarfi, L. Sannino. 0.40-m f/6 reflector + CCD.
(L01) Višnjan Observatory, Tičan  (N45.290897 E13.749300)  Croatia.
   Observers K. Korlević, L. Poropat. Measurer K. Korlevic. 1.0-m f/2.9
   reflector + CCD.
(L04) ROASTERR-1 Observatory, Cluj-Napoca  (N46.820952 E23.596400)  Romania.
   Observer L. Hudin. 0.1-m f/9 refractor + CCD.
(L18) QOS Observatory, Zalistci  (N48.848292 E26.718280)  Ukraine.  Observers
   O. V. Kravchenko, Y. V. Tanasiychuk. Measurer A. M. Kozhukhov. 0.50-m
   f/3.8 reflector + CCD.
(L47) Osservatorio Astronomico, Piobbico  (N43.585893 E12.507110)  Italy.
   Observers A. Teseo, A. Annamelia. 0.20-m f/6.3 Schmidt-Cassegrain + CCD.
(L65) Bredenkamp Observatory, Bremen  (N53.075279 E8.828310)  Germany.
   Observer H. Duin. 0.23-m f/6.3 reflector + CMO.
(M75) Online observatory, Peschany  (N45.742938 E39.511550)  Russia.
   Observer A. V. Skachedub. 0.28-m f/2.2 reflector + CMO.
(N86) Xingming Observatory-KATS, Nanshan  (N43.473806 E87.178520)  China.
   Observers Observers X. Gao, Q.-Z. Ye. Measurer Q.-Z. Ye. 0.28-m f/2.2
   Schmidt.
(N94) Altay Astronomical Observatory  (N47.588446 E88.727920)  China.
   Observers X. Liao, D. Xu, X. Gao, M. Zhang, S.-Q. Jiang, X. Liu, J. An,
   W.-J. Zhou, Z.-S. Yang, G.-Y. Sun. Measurers X. Liao, M. Zhang, W.-J.
   Zhou, Z.-S. Yang, G.-Y. Sun. 1.00-m f/2.5 reflector + CMO.
(R54) Petit Cosquet, Bangor  (N47.314413 W3.211500)  France.
(Z43) Landehen  (N48.434102 W2.537840)  France.  Observer C. Ratinaud. 0.25-m
   f/4.7 Reflector + CCD.
(Z80) Northolt Branch Observatory  (N51.554659 W0.371920)  UK/England.
   Observer G. Wells. Measurer D. Bamberger. 0.25-m f/8 Ritchey-Chrétien +
   CCD.

Orbital elements:  MZ26371
   Perihelion 2026 Oct 8.281608 +/- 0.00603 TT =  6:45:30.9 (JD 2461321.781608)
Epoch 2026 Aug 13.0 TT = JDT 2461265.5   Earth MOID: 0.0872   Ve: 0.0789
M 339.071166189 +/- 0.016           (J2000 ecliptic)             AutoNEOCP
n   0.371859200 +/- 0.000256        Peri.  194.001322 +/- 0.011
a   1.915212769 +/- 0.000881        Node   221.463977 +/- 0.011
e   0.68613184 +/- 0.000179         Incl.    5.176370 +/- 0.0011
P   2.650/968.090d         H 21.61  G  0.15   U  7.2
q 0.601124299 +/- 6.73e-5    Q 3.229301239 +/- 0.00183
53 of 55 observations 2026 July 23-Aug. 13; mean residual 0".34
Residuals in arcseconds: 
260723 F51  .02+  .02+    260812 I93  .26-  .12+    260813 G34  .02+  .21-    
260723 F51  .01+  .01-    260812 I93  .18+  .16-    260813 K78  .16-  .09-    
260804 F52  .06-  .02+    260812 L01  .31-  .34+    260813 K74  .11+  .16+    
260804 F52  .01-  .06-    260812 L01  .07-  .16-    260813 K74  .18+  .02+    
260804 F52  .07-  .00     260812 L01  .26+  .44+    260813 K74  .22+  .29+    
260804 F52  .03+  .03-    260812 L01  .19+  .17+    260813 Z43  .39+  .10-    
260811 N86  .31-  .27+    260812 L04( 2.3-  .09-)   260813 Z43  .29-  .13+    
260811 N86  .40+  .13+    260812 L04( 1.8-  .82-)   260813 L65  .14+  .22+    
260811 N86  .22-  .24+    260812 Z80  .91-  .72-    260813 Z43  .21+  .18-    
260811 N86  1.1+  .59+    260812 Z80  .27-  .64-    260813 G19  .21+  .07+    
260812 N94  .39+  .00     260813 M75  .13+  .84+    260813 L65  .26-  .09-    
260812 N94  .01+  .20+    260813 M75  .01+  .75+    260813 R54  .12+  .34+    
260812 N94  .00   .03-    260813 M75  .63+  .48+    260813 L65  .12-  .11+    
260812 L18  .32+  .16-    260813 G34  .55+  .08-    260813 R54  .18+  .38+    
260812 L18  1.1+  .30-    260813 K78  .06+  .14-    260813 R54  .10+  .17+    
260812 L18  .50+  .06-    260813 G19  .34+  .16+    260813 J95  .46-  .18-    
260812 L18  .37+  .14+    260813 K78  .00   .15-    260813 J95  .03+  .29-    
260812 126  .72-  .20-    260813 L47  .58-  .55+    
260812 126  .51-  .20+    260813 L47  .79+  .01-    

